SCP
0 0 0 0 0 0 0 0 0 0 0 0 0 -0 -0 -0 -0 -0 -0 -0 -0 -0 0 0 0 0 0 0 0 0 0 0 0 -0 -0 -0 -0 -0 -0 -0 0 0 0 -0 -0 -0 -0
0 0 0 0 0 0 0 0 0 0 0 0 -0 -0 -0 -0 -0 -0 -0 -0 -0 -0 0 0 -0 0 0 0 0 0 0 0 0 -0 -0 0 0 0 -0 -0 0 0 0 0 -0 -0 -0
0 0 0 0 0 0 0 0 0 0 0 0 0 -0 -0 -0 -0 -0 -0 -0 -0 -0 0 -0 -0 -0 0 0 0 0 0 0 0 -0 0 0 0 0 0 0 -0 0 -0 -0 0 0 -0
0 0 0 0 0 0 0 0 0 0 0 0 0 0 0 -0 -0 -0 -0 -0 0 0 0 0 -0 -0 0 0 0 0 0 0 0 0 0 0 0 -0 0 -0 0 -0 -0 -0 -0 -0 0
0 0 0 0 0 0 0 0 0 0 0 0 0 -0 -0 -0 -0 -0 -0 -0 -0 0 0 0 -0 -0 0 0 0 0 -0 0 0 0 0 0 0 0 0 -0 -0 -0 0 -0 -0 0 -0
0 0 0 0 0 0 0 0 0 0 0 0 0 0 -0 -0 -0 -0 -0 -0 0 0 0 -0 -0 0 0 0 0 0 0 0 0 0 0 0 0 0 0 -0 0 0 0 -0 -0 0 0
0 0 0 0 0 0 0 0 0 0 0 0 0 0 0 -0 -0 -0 0 0 0 0 0 0 0 0 0 0 0 0 0 0 0 0 0 0 0 0 -0 0 -0 0 0 -0 0 -0 0
0 0 0 0 0 0 0 0 0 0 0 0 0 -0 -0 -0 -0 -0 0 0 0 0 0 0 0 -0 0 0 0 0 0 0 0 0 0 0 0 -0 0 0 0 0 0 -0 0 0 -0
0 0 0 0 0 0 0 0 0 0 0 0 0 -0 -0 -0 -0 0 0 0 0 0 -0 0 0 0 0 0 0 0 0 0 0 0 -0 -0 0 0 0 0 0 0 0 0 0 0 0
0 0 0 0 0 0 0 0 0 0 0 0 0 -0 -0 -0 0 0 0 0 0 0 0 0 0 0 0 0 0 -0 0 0 0 0 0 0 -0 0 0 0 0 0 0 0 0 0 0
0 0 0 0 0 0 0 0 0 0 0 0 0 -0 -0 0 0 0 0 0 0 0 0 0 0 0 0 0 0 0 0 -0 0 -0 -0 -0 0 0 0 0 0 0 0 0 0 0 0
0 0 0 0 0 0 0 0 0 0 0 0 0 0 0 0 0 0 0 0 0 0 0 0 0 0 0 0 0 0 0 0 -0 0 0 -0 0 0 0 0 0 0 0 0 0 0 0
0 0 0 0 0 0 0 0 0 0 0 0 0 0 0 0 0 0 0 0 0 0 0 0 0 0 0 0 0 0 0 0 0 0 0 0 0 0 0 0 0 -0 0 0 0 0 0
0 0 0 0 0 0 0 0 0 0 0 0 0 0 0 0 0 0 0 0 0 0 0 0 0 0 0 0 0 0 0 0 0 -0 -0 0 0 0 0 0 -0 0 0 0 -0 0 0
0 0 0 0 0 0 0 0 0 0 0 0 0 0 0 0 0 0 0 0 0 0 0 0 0 0 0 0 0 0 0 0 0 0 -0 0 0 0 0 0 0 -0 0 0 0 0 0
0 0 0 0 0 0 0 0 0 0 0 0 0 0 0 0 0 0 0 -0 0 0 0 0 0 0 0 0 0 0 0 0 0 0 0 -0 -0 0 0 0 -0 0 -0 0 0 0 0
0 0 0 0 0 0 0 0 0 0 0 0 0 0 0 0 0 0 0 0 0 0 0 0 0 0 0 0 0 0 0 0 0 0 0 0 0 -0 0 0 -0 0 0 0 0 0 0
0 0 0 0 0 0 0 0 0 0 0 0 0 0 0 0 0 0 0 0 0 0 0 0 0 0 0 0 0 0 0 0 0 0 0 0 0 0 -0 0 0 0 0 0 0 0 0
0 0 0 0 0 0 0 0 0 0 0 0 0 0 0 0 0 0 0 0 0 0 0 0 0 0 0 0 0 0 0 0 0 0 0 0 0 0 0 0 0 0 0 0 0 0 0
0 0 0 0 0 0 0 0 0 0 0 0 0 0 0 0 0 0 0 0 0 0 0 0 0 0 0 0 0 0 0 0 0 0 0 0 0 0 0 0 0 0 0 -0 0 0 0
0 0 0 0 0 0 0 0 0 0 0 0 0 0 0 0 0 0 0 0 0 0 0 0 0 0 0 0 0 0 0 0 0 0 0 0 0 0 0 0 0 0 0 0 0 0 0
0 0 0 0 0 0 0 0 0 0 0 0 0 0 0 0 0 0 0 0 0 0 0 0 0 0 0 0 0 0 0 0 0 0 0 0 0 0 0 0 0 0 0 0 0 0 0
0 0 0 0 0 0 0 0 0 0 0 0 0 0 0 0 0 0 0 0 0 0 0 0 0 0 0 0 0 0 0 0 0 0 0 0 0 0 0 0 0 0 0 0 0 0 0
0 0 0 0 0 0 0 0 0 0 0 0 0 0 0 0 0 0 0 0 0 0 0 0 0 0 0 0 0 0 0 0 0 0 0 0 0 0 0 0 0 0 0 0 0 0 0
0 0 0 0 0 0 0 0 0 0 0 0 0 0 0 0 0 0 0 0 0 0 0 0 0 0 0 0 0 0 0 0 0 0 0 0 0 0 0 0 0 0 0 0 0 0 0
0 0 0 0 0 0 0 0 0 0 0 0 0 0 0 0 0 0 0 0 0 0 0 0 0 0 0 0 0 0 0 0 0 0 0 0 0 0 0 0 0 0 0 0 0 0 0
0 0 0 0 0 0 0 0 0 0 0 0 0 0 0 0 0 0 0 0 0 0 0 0 0 0 0 0 0 0 0 0 0 0 0 0 0 0 0 0 0 0 0 0 0 1 0
0 0 0 0 0 0 0 0 0 0 0 0 0 0 0 0 0 0 0 0 0 0 0 0 0 0 0 0 0 0 0 0 0 0 0 0 0 0 0 0 0 0 0 0 0 0 0
0 0 0 0 0 0 0 0 0 0 0 0 0 0 0 0 0 0 0 0 0 0 0 0 0 0 0 0 0 0 0 0 0 0 0 0 0 0 0 0 0 0 0 0 0 0 0
Wind_Speed_500mb
7 7 7 7 8 9 11 12 14 16 17 18 19 20 22 22 24 26 29 31 28 26 24 22 20 18 14 13 21 12 16 11 8 18 26 27 27 30 30 26 30 25 35 44 33 42 34
9 8 7 7 7 8 10 12 14 16 18 20 21 22 23 24 26 28 31 28 28 24 21 19 18 16 11 27 6 7 11 12 10 17 23 25 22 22 23 33 25 26 28 44 35 36 38
11 11 9 8 8 8 10 12 15 18 20 22 23 24 24 25 26 29 30 30 28 21 17 14 14 13 18 26 7 6 10 11 16 18 18 20 14 18 13 20 31 28 25 31 38 41 31
15 14 13 11 9 10 11 14 17 19 22 24 25 26 26 26 26 28 30 30 32 21 15 11 8 4 15 8 9 16 13 10 16 16 13 15 18 25 26 23 19 28 30 31 35 41 38
19 17 15 13 12 12 13 15 18 21 23 25 26 27 27 27 27 27 29 31 28 22 15 9 6 7 12 10 9 21 25 17 18 17 15 12 16 29 25 24 27 29 25 28 32 30 19
22 20 18 15 14 15 16 18 21 23 25 27 28 28 27 28 26 25 26 28 22 17 2 5 12 13 17 3 11 12 22 26 23 20 17 20 21 24 25 26 26 16 26 22 14 22 24
24 22 20 18 17 18 19 20 22 24 27 28 29 29 27 26 24 22 22 23 14 3 15 26 11 13 4 5 11 11 21 27 26 26 27 28 21 28 33 30 32 19 21 24 17 13 6
27 25 24 22 21 20 21 22 24 25 27 29 30 30 27 25 20 11 18 7 8 12 23 27 29 31 30 13 9 16 22 34 31 30 33 15 28 32 23 19 15 20 25 27 22 19 20
31 29 28 26 24 22 23 23 24 26 26 28 30 29 25 21 12 8 3 3 12 13 16 7 8 12 12 35 28 24 29 42 30 32 31 27 13 6 8 22 23 28 27 24 23 22 20
34 32 31 28 27 26 25 25 26 27 28 28 30 28 25 12 4 7 5 11 16 7 11 18 15 11 10 13 20 30 30 33 38 33 34 23 33 13 20 24 26 28 22 17 21 27 23
37 34 32 30 29 27 27 28 28 29 28 28 27 25 19 14 9 7 10 13 11 4 9 8 15 5 8 20 5 30 28 31 33 26 24 28 20 23 26 26 24 32 14 14 27 26 29
40 38 35 32 30 30 30 30 30 30 28 28 26 25 16 10 11 13 14 16 8 12 7 11 8 10 24 19 13 19 31 26 27 32 27 31 26 19 24 21 28 26 19 25 28 27 28
44 41 38 35 32 31 31 32 31 31 29 28 24 23 19 5 5 15 10 5 12 15 8 10 3 6 5 13 15 22 31 33 23 21 27 32 35 27 25 21 15 25 21 20 23 23 26
48 45 41 38 34 33 32 32 30 30 27 26 21 19 17 11 13 11 5 12 13 10 6 7 7 14 14 6 17 20 27 29 31 28 25 17 24 37 29 28 30 30 26 22 28 22 22
51 48 45 41 38 34 33 31 29 28 24 20 15 9 10 9 8 11 15 17 5 6 9 7 15 16 16 11 12 17 24 27 28 29 24 11 19 10 6 18 30 33 28 20 28 33 28
49 47 44 42 39 36 34 31 28 23 17 15 9 9 10 16 10 10 17 25 3 5 7 11 19 4 10 16 17 19 24 10 12 11 18 22 26 13 18 15 27 27 27 19 19 28 31
46 43 39 37 37 35 33 31 27 17 8 7 3 9 10 6 13 18 18 26 10 8 7 8 12 10 16 8 18 13 6 16 4 10 15 26 20 29 14 19 27 16 25 22 23 21 22
46 43 37 32 30 28 25 22 18 10 6 2 5 11 5 15 16 26 22 14 7 12 10 13 12 22 16 11 20 18 9 3 6 15 17 7 10 24 34 29 29 28 31 22 21 22 23
51 47 40 36 32 27 23 18 13 7 14 5 10 6 5 13 12 19 18 11 10 13 15 7 12 13 13 22 13 25 11 15 7 8 8 10 14 19 32 31 32 24 30 26 28 26 33
56 52 46 41 38 33 25 19 12 8 12 16 9 9 13 21 29 18 18 19 23 13 22 14 16 10 17 21 22 15 13 11 8 5 7 8 18 24 26 32 19 21 24 31 22 23 27
61 58 51 45 40 34 28 23 15 11 14 18 12 7 9 10 22 24 22 12 22 23 19 14 15 25 23 21 25 29 27 22 21 12 19 8 27 32 39 44 37 36 34 34 31 29 30
65 61 55 51 44 38 33 27 19 14 16 14 9 10 6 20 9 13 16 22 27 20 19 19 22 17 18 25 25 20 20 20 18 20 11 12 21 29 42 41 40 50 47 43 44 42 45
64 71 63 55 49 39 36 32 23 17 23 12 13 11 10 6 16 19 20 26 20 24 14 23 10 20 18 11 9 14 14 23 25 15 17 22 21 24 40 40 43 54 43 49 48 47 47
66 72 72 61 55 47 40 36 29 23 26 13 12 11 16 17 17 18 14 16 21 22 25 18 16 23 5 3 8 22 29 34 37 36 35 27 24 23 30 32 48 29 34 38 43 39 31
70 67 79 71 62 52 45 39 32 28 28 21 15 14 17 17 28 21 15 18 21 13 21 23 15 4 5 6 13 21 23 31 39 41 39 39 28 22 27 30 41 42 34 26 25 25 16
76 70 78 73 64 58 50 42 33 28 26 28 17 18 13 16 15 20 16 28 19 18 19 17 1 4 8 18 18 24 17 17 11 11 14 35 33 26 28 33 36 28 22 24 35 35 12
81 75 76 74 69 60 52 44 36 30 27 28 14 27 15 24 16 7 12 14 23 24 15 16 21 14 17 17 20 23 25 25 25 32 13 21 25 32 27 28 25 20 28 23 20 8 16
81 78 74 81 72 64 54 46 37 29 29 31 15 17 17 20 12 9 13 16 7 16 15 14 6 19 17 18 18 17 21 24 28 36 32 22 19 23 26 34 43 27 21 20 14 13 20
80 77 77 78 75 68 57 47 38 32 32 36 11 12 18 13 8 7 17 21 19 11 18 17 10 8 11 9 12 11 21 15 26 29 29 35 33 23 25 19 6 1 15 3 13 24 35
Wind_Direction_500mb
302 309 317 327 337 347 349 351 353 351 348 345 343 339 336 335 333 331 331 326 320 312 302 296 291 292 306 260 260 271 237 249 262 193 211 219 226 234 248 248 247 248 259 259 253 264 267
282 285 292 303 322 335 341 345 346 347 345 344 340 337 335 333 333 334 334 331 324 316 309 296 283 284 287 259 286 268 233 254 189 191 211 219 234 247 281 271 259 251 254 254 250 254 249
273 272 271 281 297 316 330 338 342 344 344 342 339 335 333 331 331 334 337 334 329 319 320 305 276 278 261 246 256 226 184 211 220 196 219 225 245 244 237 261 246 263 260 255 246 250 253
259 261 266 272 284 303 321 333 339 339 341 339 336 333 331 327 327 330 336 336 331 315 314 317 291 267 264 228 213 214 198 209 189 205 227 227 234 255 255 286 259 248 249 258 224 222 230
259 257 259 267 281 298 314 325 330 333 334 334 332 330 327 324 323 325 332 337 334 320 302 293 347 222 267 264 222 218 210 209 202 206 220 233 235 241 231 246 247 222 260 223 272 185 232
259 259 260 266 277 291 305 316 324 328 330 330 329 326 325 321 320 323 331 337 334 344 327 324 252 247 235 75 174 188 204 201 194 198 212 219 225 232 228 236 244 296 206 242 257 187 203
254 256 259 263 271 285 299 309 317 323 326 327 326 325 324 318 318 324 341 333 326 276 252 270 300 279 186 214 221 218 198 192 200 207 227 202 224 227 240 227 277 332 302 301 310 288 254
248 250 253 257 265 278 292 303 312 318 324 325 325 325 326 321 317 328 11 5 30 320 299 276 254 255 246 244 235 213 189 196 202 217 218 194 237 258 239 268 266 257 262 264 267 267 294
244 246 249 254 261 271 283 293 303 311 320 321 323 324 325 323 321 357 19 31 338 321 265 179 220 235 221 213 228 220 198 209 208 226 233 246 307 338 248 246 243 246 262 277 293 306 264
243 245 246 249 255 265 276 289 300 308 316 317 320 320 324 341 63 327 211 329 336 301 271 138 188 163 185 192 223 214 204 215 239 243 243 243 260 203 249 243 243 250 239 259 275 265 267
243 245 246 249 256 267 277 287 295 303 310 311 314 313 323 332 275 331 270 321 321 319 260 107 128 138 200 213 106 194 201 216 244 230 247 241 225 252 236 249 241 259 295 294 260 264 275
240 242 244 249 256 265 274 283 291 297 305 306 310 308 317 339 309 283 307 307 311 231 228 130 158 200 188 198 198 150 191 219 236 257 238 266 282 255 252 255 242 260 271 250 256 253 251
240 242 244 248 253 262 272 282 290 297 303 302 306 302 303 272 165 298 297 273 231 252 121 128 155 258 290 172 190 176 196 201 219 220 230 229 242 228 240 248 206 240 231 250 232 225 246
240 241 243 247 250 256 265 273 284 293 299 300 300 297 292 273 263 264 265 226 257 33 58 90 257 257 246 170 220 199 188 220 220 245 285 264 224 206 212 229 258 196 242 261 291 285 299
238 241 244 246 249 253 260 271 281 289 298 300 305 327 292 273 240 203 230 223 283 4 35 285 259 249 184 205 270 212 227 220 216 211 253 298 241 94 264 272 231 250 255 257 286 280 278
236 239 243 247 249 250 255 262 272 282 294 302 311 306 228 260 209 198 237 250 301 19 305 271 287 267 258 167 235 207 200 41 332 319 313 274 275 228 174 232 240 251 261 233 230 263 274
235 234 236 239 240 238 244 254 267 273 271 289 6 245 223 210 169 209 235 235 258 119 281 270 281 273 268 278 266 268 345 85 246 276 278 264 256 279 202 220 256 182 235 243 287 301 300
226 226 227 231 234 233 235 245 261 268 178 196 258 233 183 170 211 220 240 274 34 270 226 259 277 283 286 287 279 256 273 99 314 274 266 64 288 256 263 253 237 252 280 235 233 244 238
223 223 224 227 231 233 228 238 249 251 178 176 242 258 214 180 236 223 228 261 259 261 247 239 252 251 268 265 267 250 233 109 295 289 359 12 230 258 250 249 235 239 256 251 259 273 267
220 221 220 224 226 228 222 230 236 249 187 177 256 214 179 212 256 288 280 222 233 223 259 239 273 275 255 255 249 277 235 158 260 312 350 307 262 261 275 311 332 302 235 261 255 256 261
214 215 217 220 222 220 218 224 221 225 189 185 220 243 351 190 225 231 255 273 240 227 223 217 233 243 248 252 258 247 245 261 203 172 254 265 262 256 261 273 281 278 273 277 269 263 261
214 212 212 214 214 216 217 219 217 208 191 200 261 249 207 276 266 250 205 237 246 252 222 220 245 272 243 248 255 274 323 258 278 249 227 250 271 269 268 270 273 272 270 268 269 270 273
218 209 210 211 211 211 213 216 216 201 183 211 229 271 274 189 211 238 234 229 252 258 217 264 267 259 230 285 298 342 318 306 294 291 279 279 273 265 259 261 267 262 257 260 264 269 269
216 211 207 208 211 211 211 212 214 207 193 211 241 240 238 249 225 230 237 268 239 241 267 206 251 261 29 348 280 271 265 261 258 253 245 252 257 262 268 274 255 272 266 267 270 280 269
216 212 205 208 210 211 210 213 213 214 203 194 238 211 243 259 264 225 236 238 242 235 251 264 225 43 337 258 268 250 246 243 245 242 236 230 243 263 258 250 258 267 290 287 280 278 334
214 210 202 204 206 207 208 210 213 215 207 192 221 215 232 265 257 245 236 232 235 221 224 237 225 294 283 267 236 246 249 273 230 180 231 225 223 246 254 263 265 280 272 12 323 233 44
212 207 203 200 201 202 204 205 208 206 195 173 223 221 215 247 252 205 233 257 232 262 254 203 191 236 231 245 248 246 248 262 262 261 194 216 222 228 236 251 272 285 330 336 270 66 9
206 201 196 198 198 199 199 199 201 200 188 172 212 218 205 245 236 243 235 236 244 249 243 133 189 214 215 235 255 246 251 247 253 249 267 227 212 232 233 253 260 267 267 273 35 332 325
199 196 191 195 196 193 193 194 197 192 178 173 197 213 205 225 339 222 226 233 236 273 267 169 259 299 228 246 234 256 254 245 255 258 229 249 262 264 262 240 200 3 317 260 322 311 310
Wind_Speed_850mb
7 7 7 7 8 9 11 12 14 16 17 18 19 20 22 22 24 26 29 31 28 26 24 22 20 18 14 13 21 12 16 11 8 18 26 27 27 30 30 26 30 25 35 44 33 42 34
9 8 7 7 7 8 10 12 14 16 18 20 21 22 23 24 26 28 31 28 28 24 21 19 18 16 11 27 6 7 11 12 10 17 23 25 22 22 23 33 25 26 28 44 35 36 38
11 11 9 8 8 8 10 12 15 18 20 22 23 24 24 25 26 29 30 30 28 21 17 14 14 13 18 26 7 6 10 11 16 18 18 20 14 18 13 20 31 28 25 31 38 41 31
15 14 13 11 9 10 11 14 17 19 22 24 25 26 26 26 26 28 30 30 32 21 15 11 8 4 15 8 9 16 13 10 16 16 13 15 18 25 26 23 19 28 30 31 35 41 38
19 17 15 13 12 12 13 15 18 21 23 25 26 27 27 27 27 27 29 31 28 22 15 9 6 7 12 10 9 21 25 17 18 17 15 12 16 29 25 24 27 29 25 28 32 30 19
22 20 18 15 14 15 16 18 21 23 25 27 28 28 27 28 26 25 26 28 22 17 2 5 12 13 17 3 11 12 22 26 23 20 17 20 21 24 25 26 26 16 26 22 14 22 24
24 22 20 18 17 18 19 20 22 24 27 28 29 29 27 26 24 22 22 23 14 3 15 26 11 13 4 5 11 11 21 27 26 26 27 28 21 28 33 30 32 19 21 24 17 13 6
27 25 24 22 21 20 21 22 24 25 27 29 30 30 27 25 20 11 18 7 8 12 23 27 29 31 30 13 9 16 22 34 31 30 33 15 28 32 23 19 15 20 25 27 22 19 20
31 29 28 26 24 22 23 23 24 26 26 28 30 29 25 21 12 8 3 3 12 13 16 7 8 12 12 35 28 24 29 42 30 32 31 27 13 6 8 22 23 28 27 24 23 22 20
34 32 31 28 27 26 25 25 26 27 28 28 30 28 25 12 4 7 5 11 16 7 11 18 15 11 10 13 20 30 30 33 38 33 34 23 33 13 20 24 26 28 22 17 21 27 23
37 34 32 30 29 27 27 28 28 29 28 28 27 25 19 14 9 7 10 13 11 4 9 8 15 5 8 20 5 30 28 31 33 26 24 28 20 23 26 26 24 32 14 14 27 26 29
40 38 35 32 30 30 30 30 30 30 28 28 26 25 16 10 11 13 14 16 8 12 7 11 8 10 24 19 13 19 31 26 27 32 27 31 26 19 24 21 28 26 19 25 28 27 28
44 41 38 35 32 31 31 32 31 31 29 28 24 23 19 5 5 15 10 5 12 15 8 10 3 6 5 13 15 22 31 33 23 21 27 32 35 27 25 21 15 25 21 20 23 23 26
48 45 41 38 34 33 32 32 30 30 27 26 21 19 17 11 13 11 5 12 13 10 6 7 7 14 14 6 17 20 27 29 31 28 25 17 24 37 29 28 30 30 26 22 28 22 22
51 48 45 41 38 34 33 31 29 28 24 20 15 9 10 9 8 11 15 17 5 6 9 7 15 16 16 11 12 17 24 27 28 29 24 11 19 10 6 18 30 33 28 20 28 33 28
49 47 44 42 39 36 34 31 28 23 17 15 9 9 10 16 10 10 17 25 3 5 7 11 19 4 10 16 17 19 24 10 12 11 18 22 26 13 18 15 27 27 27 19 19 28 31
46 43 39 37 37 35 33 31 27 17 8 7 3 9 10 6 13 18 18 26 10 8 7 8 12 10 16 8 18 13 6 16 4 10 15 26 20 29 14 19 27 16 25 22 23 21 22
46 43 37 32 30 28 25 22 18 10 6 2 5 11 5 15 16 26 22 14 7 12 10 13 12 22 16 11 20 18 9 3 6 15 17 7 10 24 34 29 29 28 31 22 21 22 23
51 47 40 36 32 27 23 18 13 7 14 5 10 6 5 13 12 19 18 11 10 13 15 7 12 13 13 22 13 25 11 15 7 8 8 10 14 19 32 31 32 24 30 26 28 26 33
56 52 46 41 38 33 25 19 12 8 12 16 9 9 13 21 29 18 18 19 23 13 22 14 16 10 17 21 22 15 13 11 8 5 7 8 18 24 26 32 19 21 24 31 22 23 27
61 58 51 45 40 34 28 23 15 11 14 18 12 7 9 10 22 24 22 12 22 23 19 14 15 25 23 21 25 29 27 22 21 12 19 8 27 32 39 44 37 36 34 34 31 29 30
65 61 55 51 44 38 33 27 19 14 16 14 9 10 6 20 9 13 16 22 27 20 19 19 22 17 18 25 25 20 20 20 18 20 11 12 21 29 42 41 40 50 47 43 44 42 45
64 71 63 55 49 39 36 32 23 17 23 12 13 11 10 6 16 19 20 26 20 24 14 23 10 20 18 11 9 14 14 23 25 15 17 22 21 24 40 40 43 54 43 49 48 47 47
66 72 72 61 55 47 40 36 29 23 26 13 12 11 16 17 17 18 14 16 21 22 25 18 16 23 5 3 8 22 29 34 37 36 35 27 24 23 30 32 48 29 34 38 43 39 31
70 67 79 71 62 52 45 39 32 28 28 21 15 14 17 17 28 21 15 18 21 13 21 23 15 4 5 6 13 21 23 31 39 41 39 39 28 22 27 30 41 42 34 26 25 25 16
76 70 78 73 64 58 50 42 33 28 26 28 17 18 13 16 15 20 16 28 19 18 19 17 1 4 8 18 18 24 17 17 11 11 14 35 33 26 28 33 36 28 22 24 35 35 12
81 75 76 74 69 60 52 44 36 30 27 28 14 27 15 24 16 7 12 14 23 24 15 16 21 14 17 17 20 23 25 25 25 32 13 21 25 32 27 28 25 20 28 23 20 8 16
81 78 74 81 72 64 54 46 37 29 29 31 15 17 17 20 12 9 13 16 7 16 15 14 6 19 17 18 18 17 21 24 28 36 32 22 19 23 26 34 43 27 21 20 14 13 20
80 77 77 78 75 68 57 47 38 32 32 36 11 12 18 13 8 7 17 21 19 11 18 17 10 8 11 9 12 11 21 15 26 29 29 35 33 23 25 19 6 1 15 3 13 24 35
Wind_Direction_850mb
302 309 317 327 337 347 349 351 353 351 348 345 343 339 336 335 333 331 331 326 320 312 302 296 291 292 306 260 260 271 237 249 262 193 211 219 226 234 248 248 247 248 259 259 253 264 267
282 285 292 303 322 335 341 345 346 347 345 344 340 337 335 333 333 334 334 331 324 316 309 296 283 284 287 259 286 268 233 254 189 191 211 219 234 247 281 271 259 251 254 254 250 254 249
273 272 271 281 297 316 330 338 342 344 344 342 339 335 333 331 331 334 337 334 329 319 320 305 276 278 261 246 256 226 184 211 220 196 219 225 245 244 237 261 246 263 260 255 246 250 253
259 261 266 272 284 303 321 333 339 339 341 339 336 333 331 327 327 330 336 336 331 315 314 317 291 267 264 228 213 214 198 209 189 205 227 227 234 255 255 286 259 248 249 258 224 222 230
259 257 259 267 281 298 314 325 330 333 334 334 332 330 327 324 323 325 332 337 334 320 302 293 347 222 267 264 222 218 210 209 202 206 220 233 235 241 231 246 247 222 260 223 272 185 232
259 259 260 266 277 291 305 316 324 328 330 330 329 326 325 321 320 323 331 337 334 344 327 324 252 247 235 75 174 188 204 201 194 198 212 219 225 232 228 236 244 296 206 242 257 187 203
254 256 259 263 271 285 299 309 317 323 326 327 326 325 324 318 318 324 341 333 326 276 252 270 300 279 186 214 221 218 198 192 200 207 227 202 224 227 240 227 277 332 302 301 310 288 254
248 250 253 257 265 278 292 303 312 318 324 325 325 325 326 321 317 328 11 5 30 320 299 276 254 255 246 244 235 213 189 196 202 217 218 194 237 258 239 268 266 257 262 264 267 267 294
244 246 249 254 261 271 283 293 303 311 320 321 323 324 325 323 321 357 19 31 338 321 265 179 220 235 221 213 228 220 198 209 208 226 233 246 307 338 248 246 243 246 262 277 293 306 264
243 245 246 249 255 265 276 289 300 308 316 317 320 320 324 341 63 327 211 329 336 301 271 138 188 163 185 192 223 214 204 215 239 243 243 243 260 203 249 243 243 250 239 259 275 265 267
243 245 246 249 256 267 277 287 295 303 310 311 314 313 323 332 275 331 270 321 321 319 260 107 128 138 200 213 106 194 201 216 244 230 247 241 225 252 236 249 241 259 295 294 260 264 275
240 242 244 249 256 265 274 283 291 297 305 306 310 308 317 339 309 283 307 307 311 231 228 130 158 200 188 198 198 150 191 219 236 257 238 266 282 255 252 255 242 260 271 250 256 253 251
240 242 244 248 253 262 272 282 290 297 303 302 306 302 303 272 165 298 297 273 231 252 121 128 155 258 290 172 190 176 196 201 219 220 230 229 242 228 240 248 206 240 231 250 232 225 246
240 241 243 247 250 256 265 273 284 293 299 300 300 297 292 273 263 264 265 226 257 33 58 90 257 257 246 170 220 199 188 220 220 245 285 264 224 206 212 229 258 196 242 261 291 285 299
238 241 244 246 249 253 260 271 281 289 298 300 305 327 292 273 240 203 230 223 283 4 35 285 259 249 184 205 270 212 227 220 216 211 253 298 241 94 264 272 231 250 255 257 286 280 278
236 239 243 247 249 250 255 262 272 282 294 302 311 306 228 260 209 198 237 250 301 19 305 271 287 267 258 167 235 207 200 41 332 319 313 274 275 228 174 232 240 251 261 233 230 263 274
235 234 236 239 240 238 244 254 267 273 271 289 6 245 223 210 169 209 235 235 258 119 281 270 281 273 268 278 266 268 345 85 246 276 278 264 256 279 202 220 256 182 235 243 287 301 300
226 226 227 231 234 233 235 245 261 268 178 196 258 233 183 170 211 220 240 274 34 270 226 259 277 283 286 287 279 256 273 99 314 274 266 64 288 256 263 253 237 252 280 235 233 244 238
223 223 224 227 231 233 228 238 249 251 178 176 242 258 214 180 236 223 228 261 259 261 247 239 252 251 268 265 267 250 233 109 295 289 359 12 230 258 250 249 235 239 256 251 259 273 267
220 221 220 224 226 228 222 230 236 249 187 177 256 214 179 212 256 288 280 222 233 223 259 239 273 275 255 255 249 277 235 158 260 312 350 307 262 261 275 311 332 302 235 261 255 256 261
214 215 217 220 222 220 218 224 221 225 189 185 220 243 351 190 225 231 255 273 240 227 223 217 233 243 248 252 258 247 245 261 203 172 254 265 262 256 261 273 281 278 273 277 269 263 261
214 212 212 214 214 216 217 219 217 208 191 200 261 249 207 276 266 250 205 237 246 252 222 220 245 272 243 248 255 274 323 258 278 249 227 250 271 269 268 270 273 272 270 268 269 270 273
218 209 210 211 211 211 213 216 216 201 183 211 229 271 274 189 211 238 234 229 252 258 217 264 267 259 230 285 298 342 318 306 294 291 279 279 273 265 259 261 267 262 257 260 264 269 269
216 211 207 208 211 211 211 212 214 207 193 211 241 240 238 249 225 230 237 268 239 241 267 206 251 261 29 348 280 271 265 261 258 253 245 252 257 262 268 274 255 272 266 267 270 280 269
216 212 205 208 210 211 210 213 213 214 203 194 238 211 243 259 264 225 236 238 242 235 251 264 225 43 337 258 268 250 246 243 245 242 236 230 243 263 258 250 258 267 290 287 280 278 334
214 210 202 204 206 207 208 210 213 215 207 192 221 215 232 265 257 245 236 232 235 221 224 237 225 294 283 267 236 246 249 273 230 180 231 225 223 246 254 263 265 280 272 12 323 233 44
212 207 203 200 201 202 204 205 208 206 195 173 223 221 215 247 252 205 233 257 232 262 254 203 191 236 231 245 248 246 248 262 262 261 194 216 222 228 236 251 272 285 330 336 270 66 9
206 201 196 198 198 199 199 199 201 200 188 172 212 218 205 245 236 243 235 236 244 249 243 133 189 214 215 235 255 246 251 247 253 249 267 227 212 232 233 253 260 267 267 273 35 332 325
199 196 191 195 196 193 193 194 197 192 178 173 197 213 205 225 339 222 226 233 236 273 267 169 259 299 228 246 234 256 254 245 255 258 229 249 262 264 262 240 200 3 317 260 322 311 310